Location: Eurasberg
(48.3353°N, 11.0839°E)
Time: 14:07:19
(UTC+00:00)

Timation 1 Rocket - Pass Details

Date: 23 April 2026
Orbit: 895 x 908 km, 70.0° (Epoch: 14 May)

Event Time Altitude Azimuth Distance (km) Brightness Sun altitude
Exits shadow 22:02:31 22° 82° (E) 1,860 5.8 -26.9°
Drops below altitude 10° 22:05:47 10° 51° (NE) 2,600 6.9 -27.0°
Sets 22:08:43 0° 39° (NE) 3,547 7.9 -27.2°
